This demonstration page uses our WeatherBlox Daily Observations layout. Learn more.

Left ArrowRight Arrow

39.92423, -83.80882

Hourly Observations for February 24, 2016

Temp ( °F °C ) Dew Point ( °F °C ) Humidity (%) Winds ( mph kmh ) Pressure ( in mb ) Visibility ( mi km ) Precip ( " mm )
12:56 am 00:56 Mostly Cloudy with Light Rain 39 3.8 35 1.6 86 86 NE 14 22 29.75 1007 9 14 N/A
1:56 am 01:56 Cloudy with Rain 38 3.3 37 2.7 96 96 NE 16 26 29.70 1006 3 5 0.09 2.29
2:18 am 02:18 Cloudy with Rain 37 3 37 3 100 100 NE 18 30 29.68 1005 3 4 0.06 1.52
2:28 am 02:28 Cloudy with Light Rain 37 3 37 3 100 100 NE 21 33 29.68 1005 3 5 0.08 2.03
2:38 am 02:38 Cloudy with Mist and Fog 37 3 37 3 100 100 NE 16 26 29.68 1005 3 4 0.11 2.79
2:47 am 02:47 Cloudy with Rain 37 3 37 3 100 100 ENE 17 28 29.68 1005 3 5 0.13 3.30
2:56 am 02:56 Cloudy with Heavy Rain 38 3.3 37 2.7 96 96 ENE 16 26 29.65 1004 2 3 0.17 4.32
3:37 am 03:37 Cloudy with Rain 37 3 37 3 100 100 NE 22 35 29.59 1002 3 4 0.16 4.06
3:48 am 03:48 Cloudy with Light Rain 37 3 37 3 100 100 NE 21 33 29.59 1002 3 5 0.18 4.57
3:56 am 03:56 Cloudy with Light Rain 38 3.3 38 3.3 100 100 NE 21 33 29.54 1001 3 5 0.18 4.57
4:18 am 04:18 Cloudy with Rain 37 3 37 3 100 100 NE 21 33 29.59 1002 3 4 0.06 1.52
4:31 am 04:31 Cloudy with Rain 39 4 39 4 100 100 ENE 16 26 29.59 1002 3 5 0.08 2.03
4:41 am 04:41 Cloudy with Heavy Rain 39 4 39 4 100 100 NE 17 28 29.59 1002 3 4 0.12 3.05
4:56 am 04:56 Cloudy with Heavy Rain 39 3.8 39 3.8 100 100 NE 22 35 29.50 999 1 2 0.24 6.10
5:14 am 05:14 Cloudy with Light Rain 39 4 39 4 100 100 ENE 23 37 29.53 1000 2 3 0.07 1.78
5:23 am 05:23 Cloudy with Light Rain 39 4 39 4 100 100 ENE 22 35 29.53 1000 4 6 0.08 2.03
5:34 am 05:34 Cloudy with Light Rain 39 4 39 4 100 100 ENE 22 35 29.53 1000 3 4 0.10 2.54
5:44 am 05:44 Cloudy with Light Rain 39 4 39 4 100 100 ENE 21 33 29.53 1000 4 6 0.11 2.79
5:56 am 05:56 Cloudy with Light Rain 40 4.4 40 4.4 100 100 ENE 21 33 29.46 998 2 3 0.13 3.30
6:04 am 06:04 Cloudy with Light Rain 39 4 39 4 100 100 ENE 18 30 29.50 999 3 5 N/A
6:17 am 06:17 Cloudy with Rain 39 4 39 4 100 100 ENE 17 28 29.50 999 3 4 0.03 0.76
6:27 am 06:27 Cloudy with Rain 39 4 39 4 100 100 ENE 18 30 29.47 998 3 5 0.05 1.27
6:37 am 06:37 Cloudy with Light Rain 41 5 41 5 100 100 ENE 18 30 29.44 997 3 4 0.09 2.29
6:44 am 06:44 Cloudy with Light Rain 41 5 41 5 100 100 ENE 16 26 29.44 997 4 6 0.10 2.54
6:56 am 06:56 Cloudy with Rain 42 5.5 42 5.5 100 100 ENE 17 28 29.41 996 3 5 0.14 3.56
7:56 am 07:56 Cloudy with Light Rain 42 5.5 42 5.5 100 100 ENE 16 26 29.38 995 8 13 0.08 2.03
8:16 am 08:16 Cloudy with Rain 43 6 43 6 100 100 ENE 14 22 29.38 995 2 3 0.06 1.52
8:20 am 08:20 Cloudy with Rain 43 6 43 6 100 100 ENE 16 26 29.38 995 1 2 0.09 2.29
8:29 am 08:29 Cloudy with Rain 43 6 43 6 100 100 ENE 15 24 29.38 995 2 2 0.12 3.05
8:34 am 08:34 Cloudy with Light Rain 43 6 43 6 100 100 ENE 16 26 29.38 995 3 5 0.13 3.30
8:56 am 08:56 Cloudy 43 6.1 43 6.1 100 100 ENE 17 28 29.33 993 9 14 0.13 3.30
9:56 am 09:56 Cloudy 44 6.6 44 6.6 100 100 ENE 12 19 29.30 992 10 16 N/A
10:56 am 10:56 Cloudy 46 7.7 46 7.7 100 100 E 14 22 29.27 991 10 16 0.01 0.25
11:56 am 11:56 Cloudy 52 11.1 52 11.1 100 100 ESE 15 24 29.23 990 10 16 0.01 0.25
12:19 pm 12:19 Cloudy 54 12 54 12 100 100 SE 13 20 29.23 990 10 16 N/A
12:56 pm 12:56 Cloudy 54 12.2 53 11.6 96 96 SE 9 15 29.18 988 10 16 N/A
1:11 pm 13:11 Cloudy 55 13 54 12 94 94 SSE 10 17 29.18 988 10 16 N/A
1:28 pm 13:28 Mostly Cloudy 57 14 55 13 94 94 SSE 12 19 29.18 988 10 16 N/A
1:56 pm 13:56 Mostly Cloudy 57 13.8 53 11.6 87 87 SSE 14 22 29.16 987 10 16 N/A
2:17 pm 14:17 Cloudy with Light Rain 55 13 54 12 94 94 S 9 15 29.15 987 5 8 0.01 0.25
2:31 pm 14:31 Mostly Cloudy 55 13 52 11 88 88 SSW 15 24 29.15 987 10 16 0.02 0.51
2:56 pm 14:56 Partly Cloudy 58 14.4 52 11.1 81 81 SSW 15 24 29.15 987 10 16 0.02 0.51
3:21 pm 15:21 Cloudy with Rain 55 13 52 11 88 88 SSW 15 24 29.15 987 2 3 0.03 0.76
3:30 pm 15:30 Cloudy with Light Rain 54 12 52 11 94 94 SW 10 17 29.15 987 3 5 0.04 1.02
3:42 pm 15:42 Cloudy with Light Rain 54 12 52 11 94 94 SSW 10 17 29.15 987 4 6 0.06 1.52
3:45 pm 15:45 Mostly Cloudy with Light Rain 54 12 52 11 94 94 SW 22 35 29.18 988 3 4 0.06 1.52
3:56 pm 15:56 Cloudy with Light Rain 53 11.6 51 10.5 93 93 SSW 25 41 29.18 988 5 8 0.08 2.03
4:56 pm 16:56 Cloudy 50 10 47 8.3 89 89 SW 17 28 29.21 989 10 16 0.02 0.51
5:56 pm 17:56 Cloudy 45 7.2 40 4.4 83 83 SW 22 35 29.26 991 10 16 N/A
6:56 pm 18:56 Cloudy 42 5.5 39 3.8 89 89 WSW 14 22 29.29 992 10 16 N/A
7:45 pm 19:45 Cloudy with Light Rain 39 4 37 3 93 93 SW 17 28 29.32 993 10 16 N/A
7:56 pm 19:56 Cloudy 40 4.4 38 3.3 93 93 SW 18 30 29.30 992 10 16 N/A
8:56 pm 20:56 Cloudy 39 3.8 37 2.7 93 93 SSW 14 22 29.31 993 10 16 N/A
9:46 pm 21:46 Cloudy with Light Rain 37 3 36 2 93 93 SSW 14 22 29.35 994 8 13 0.01 0.25
9:56 pm 21:56 Cloudy 37 2.7 36 2.2 97 97 SSW 15 24 29.32 993 8 13 0.02 0.51
10:19 pm 22:19 Cloudy with Light Snow 36 2 34 1 93 93 W 13 20 29.38 995 3 5 0.01 0.25
10:35 pm 22:35 Cloudy with Light Snow 34 1 34 1 100 100 WNW 12 19 29.38 995 3 4 0.01 0.25
10:56 pm 22:56 Cloudy with Light Snow 33 0.5 33 0.5 100 100 W 15 24 29.35 994 5 8 0.03 0.76
11:10 pm 23:10 Cloudy with Light Snow 34 1 34 1 100 100 W 15 24 29.41 996 4 6 N/A
11:21 pm 23:21 Cloudy with Light Snow 34 1 32 undefined 93 93 W 14 22 29.41 996 2 3 N/A
11:25 pm 23:25 Cloudy with Light Snow 34 1 32 undefined 93 93 W 14 22 29.41 996 2 3 N/A
11:31 pm 23:31 Cloudy with Light Snow 34 1 32 undefined 93 93 W 14 22 29.41 996 2 3 N/A
11:56 pm 23:56 Cloudy with Light Snow 32 undefined 32 undefined 100 100 W 16 26 29.39 995 2 3 N/A

Powered by AerisWeather